Time,TemperatureF,DewpointF,PressureIn,WindDirection,WindDirectionDegrees,WindSpeedMPH,WindSpeedGustMPH,Humidity,HourlyPrecipIn,Conditions,Clouds,dailyrainin,SolarRadiationWatts/m^2,SoftwareType,DateUTC
2013-09-10 00:01:00,69.2,67.1,30.12,East,79,0.0,0.0,93,0.00,CLR,,0.00,0.0,WeatherDisplay:10.37,2013-09-10 04:01:00,
2013-09-10 00:06:00,69.2,67.1,30.12,East,79,0.0,0.0,93,0.00,CLR,,0.00,0.0,WeatherDisplay:10.37,2013-09-10 04:06:00,
2013-09-10 00:11:00,69.3,67.2,30.13,East,79,0.0,0.0,93,0.00,CLR,,0.00,0.0,WeatherDisplay:10.37,2013-09-10 04:11:00,
2013-09-10 00:16:00,69.2,67.1,30.13,East,79,0.0,0.0,93,0.00,CLR,,0.00,0.0,WeatherDisplay:10.37,2013-09-10 04:16:00,
2013-09-10 00:21:00,69.2,67.1,30.12,East,79,0.0,0.0,93,0.00,CLR,,0.00,0.0,WeatherDisplay:10.37,2013-09-10 04:21:00,
2013-09-10 00:26:00,69.0,66.9,30.12,East,79,0.0,0.0,93,0.00,CLR,,0.00,0.0,WeatherDisplay:10.37,2013-09-10 04:26:00,
2013-09-10 00:31:00,69.0,66.9,30.12,East,79,0.0,0.0,93,0.00,CLR,,0.00,0.0,WeatherDisplay:10.37,2013-09-10 04:31:00,
2013-09-10 00:36:00,69.0,66.9,30.12,East,79,0.0,0.0,93,0.00,CLR,,0.00,0.0,WeatherDisplay:10.37,2013-09-10 04:36:00,
2013-09-10 00:41:00,69.0,66.9,30.12,East,79,0.0,0.0,93,0.00,CLR,,0.00,0.0,WeatherDisplay:10.37,2013-09-10 04:41:00,
2013-09-10 00:46:00,68.9,66.8,30.12,East,79,0.0,0.0,93,0.00,CLR,,0.00,0.0,WeatherDisplay:10.37,2013-09-10 04:46:00,
2013-09-10 00:51:00,68.9,66.8,30.13,East,79,0.0,0.0,93,0.00,CLR,,0.00,0.0,WeatherDisplay:10.37,2013-09-10 04:51:00,
2013-09-10 00:56:00,68.9,66.8,30.13,East,79,0.0,0.0,93,0.00,CLR,,0.00,0.0,WeatherDisplay:10.37,2013-09-10 04:56:00,
2013-09-10 01:01:00,68.8,66.7,30.13,East,79,0.0,0.0,93,0.00,CLR,,0.00,0.0,WeatherDisplay:10.37,2013-09-10 05:01:00,
2013-09-10 01:06:00,68.8,66.7,30.13,East,80,0.0,0.0,93,0.00,CLR,,0.00,0.0,WeatherDisplay:10.37,2013-09-10 05:06:00,
2013-09-10 01:11:00,68.8,66.7,30.13,East,80,0.0,0.0,93,0.00,CLR,,0.00,0.0,WeatherDisplay:10.37,2013-09-10 05:11:00,
2013-09-10 01:16:00,68.8,66.7,30.13,East,80,0.0,0.0,93,0.00,CLR,,0.00,0.0,WeatherDisplay:10.37,2013-09-10 05:16:00,
2013-09-10 01:21:00,68.8,66.4,30.13,East,80,0.0,0.0,92,0.00,CLR,,0.00,0.0,WeatherDisplay:10.37,2013-09-10 05:21:00,
2013-09-10 01:26:00,68.8,66.4,30.13,East,80,0.0,0.0,92,0.00,CLR,,0.00,0.0,WeatherDisplay:10.37,2013-09-10 05:26:00,
2013-09-10 01:31:00,68.8,66.4,30.14,East,80,0.0,0.0,92,0.00,CLR,,0.00,0.0,WeatherDisplay:10.37,2013-09-10 05:31:00,
2013-09-10 01:36:00,68.8,66.4,30.14,East,80,0.0,0.0,92,0.00,CLR,,0.00,0.0,WeatherDisplay:10.37,2013-09-10 05:36:00,
2013-09-10 01:41:00,68.7,66.3,30.13,East,80,0.0,0.0,92,0.00,CLR,,0.00,0.0,WeatherDisplay:10.37,2013-09-10 05:41:00,
2013-09-10 01:46:00,68.6,66.5,30.14,East,80,0.0,0.0,93,0.00,CLR,,0.00,0.0,WeatherDisplay:10.37,2013-09-10 05:46:00,
2013-09-10 01:51:00,68.6,66.5,30.14,East,80,0.0,0.0,93,0.00,CLR,,0.00,0.0,WeatherDisplay:10.37,2013-09-10 05:51:00,
2013-09-10 01:56:00,68.5,66.1,30.14,East,80,0.0,0.0,92,0.00,CLR,,0.00,0.0,WeatherDisplay:10.37,2013-09-10 05:56:00,
2013-09-10 02:01:00,68.4,66.3,30.14,East,80,0.0,0.0,93,0.00,CLR,,0.00,0.0,WeatherDisplay:10.37,2013-09-10 06:01:00,
2013-09-10 02:06:00,68.3,66.2,30.14,East,80,0.0,0.0,93,0.00,CLR,,0.00,0.0,WeatherDisplay:10.37,2013-09-10 06:06:00,
2013-09-10 02:11:00,68.3,66.2,30.14,East,80,0.0,0.0,93,0.00,CLR,,0.00,0.0,WeatherDisplay:10.37,2013-09-10 06:11:00,
2013-09-10 02:16:00,68.1,66.0,30.14,East,80,0.0,0.0,93,0.00,CLR,,0.00,0.0,WeatherDisplay:10.37,2013-09-10 06:16:00,
2013-09-10 02:21:00,68.1,66.0,30.14,East,80,0.0,0.0,93,0.00,CLR,,0.00,0.0,WeatherDisplay:10.37,2013-09-10 06:21:00,
2013-09-10 02:26:00,68.1,66.3,30.14,East,80,0.0,0.0,94,0.00,CLR,,0.00,0.0,WeatherDisplay:10.37,2013-09-10 06:26:00,
2013-09-10 02:31:00,68.0,66.2,30.15,East,80,0.0,0.0,94,0.00,CLR,,0.00,0.0,WeatherDisplay:10.37,2013-09-10 06:31:00,
2013-09-10 02:36:00,68.0,65.9,30.15,East,79,0.0,0.0,93,0.00,CLR,,0.00,0.0,WeatherDisplay:10.37,2013-09-10 06:36:00,
2013-09-10 02:41:00,67.9,65.8,30.15,East,79,0.0,0.0,93,0.00,CLR,,0.00,0.0,WeatherDisplay:10.37,2013-09-10 06:41:00,
2013-09-10 02:46:00,67.9,66.1,30.15,East,79,0.0,0.0,94,0.00,CLR,,0.00,0.0,WeatherDisplay:10.37,2013-09-10 06:46:00,
2013-09-10 02:51:00,67.9,66.1,30.14,East,80,0.0,0.0,94,0.00,CLR,,0.00,0.0,WeatherDisplay:10.37,2013-09-10 06:51:00,
2013-09-10 02:56:00,67.9,65.8,30.15,East,80,0.0,0.0,93,0.00,CLR,,0.00,0.0,WeatherDisplay:10.37,2013-09-10 06:56:00,
2013-09-10 03:01:00,67.9,65.8,30.14,East,80,0.0,0.0,93,0.00,CLR,,0.00,0.0,WeatherDisplay:10.37,2013-09-10 07:01:00,
2013-09-10 03:06:00,67.9,65.8,30.14,East,80,0.0,0.0,93,0.00,CLR,,0.00,0.0,WeatherDisplay:10.37,2013-09-10 07:06:00,
2013-09-10 03:11:00,67.9,65.8,30.14,East,80,0.0,0.0,93,0.00,CLR,,0.00,0.0,WeatherDisplay:10.37,2013-09-10 07:11:00,
2013-09-10 03:16:00,67.8,65.7,30.14,East,80,0.0,0.0,93,0.00,CLR,,0.00,0.0,WeatherDisplay:10.37,2013-09-10 07:16:00,
2013-09-10 03:21:00,67.7,65.6,30.14,East,80,0.0,0.0,93,0.00,CLR,,0.00,0.0,WeatherDisplay:10.37,2013-09-10 07:21:00,
2013-09-10 03:26:00,67.7,65.6,30.14,ENE,78,0.0,0.0,93,0.00,CLR,,0.00,0.0,WeatherDisplay:10.37,2013-09-10 07:26:00,
2013-09-10 03:31:00,67.7,65.6,30.14,ENE,78,0.0,0.0,93,0.00,CLR,,0.00,0.0,WeatherDisplay:10.37,2013-09-10 07:31:00,
2013-09-10 03:36:00,67.6,65.5,30.14,ENE,78,0.0,0.0,93,0.00,CLR,,0.00,0.0,WeatherDisplay:10.37,2013-09-10 07:36:00,
2013-09-10 03:41:00,67.7,65.6,30.15,ENE,78,0.0,0.0,93,0.00,CLR,,0.00,0.0,WeatherDisplay:10.37,2013-09-10 07:41:00,
2013-09-10 03:46:00,67.7,65.6,30.15,ENE,78,0.0,0.0,93,0.00,CLR,,0.00,0.0,WeatherDisplay:10.37,2013-09-10 07:46:00,
2013-09-10 03:51:00,67.7,65.6,30.15,ENE,78,0.0,0.0,93,0.00,CLR,,0.00,0.0,WeatherDisplay:10.37,2013-09-10 07:51:00,
2013-09-10 03:56:00,67.6,65.5,30.15,ENE,78,0.0,0.0,93,0.00,CLR,,0.00,0.0,WeatherDisplay:10.37,2013-09-10 07:56:00,
2013-09-10 04:01:00,67.6,65.5,30.15,ENE,78,0.0,0.0,93,0.00,CLR,,0.00,0.0,WeatherDisplay:10.37,2013-09-10 08:01:00,
2013-09-10 04:06:00,67.5,65.4,30.15,ENE,78,0.0,0.0,93,0.00,CLR,,0.00,0.0,WeatherDisplay:10.37,2013-09-10 08:06:00,
2013-09-10 04:11:00,67.5,65.4,30.15,ENE,78,0.0,0.0,93,0.00,CLR,,0.00,0.0,WeatherDisplay:10.37,2013-09-10 08:11:00,
2013-09-10 04:16:00,67.5,65.4,30.15,ENE,78,0.0,0.0,93,0.00,CLR,,0.00,0.0,WeatherDisplay:10.37,2013-09-10 08:16:00,
2013-09-10 04:21:00,67.5,65.4,30.15,ENE,78,0.0,0.0,93,0.00,CLR,,0.00,0.0,WeatherDisplay:10.37,2013-09-10 08:21:00,
2013-09-10 04:26:00,67.5,65.4,30.15,ENE,78,0.0,0.0,93,0.00,CLR,,0.00,0.0,WeatherDisplay:10.37,2013-09-10 08:26:00,
2013-09-10 04:31:00,67.5,65.4,30.15,ENE,77,0.0,0.0,93,0.00,CLR,,0.00,0.0,WeatherDisplay:10.37,2013-09-10 08:31:00,
2013-09-10 04:36:00,67.4,65.3,30.15,ENE,77,0.0,0.0,93,0.00,CLR,,0.00,0.0,WeatherDisplay:10.37,2013-09-10 08:36:00,
2013-09-10 04:41:00,67.4,65.3,30.15,ENE,77,0.0,0.0,93,0.00,CLR,,0.00,0.0,WeatherDisplay:10.37,2013-09-10 08:41:00,
2013-09-10 04:46:00,67.3,65.2,30.15,ENE,71,0.0,0.0,93,0.00,CLR,,0.00,0.0,WeatherDisplay:10.37,2013-09-10 08:46:00,
2013-09-10 04:51:00,67.3,65.2,30.15,ENE,71,0.0,0.0,93,0.00,CLR,,0.00,0.0,WeatherDisplay:10.37,2013-09-10 08:51:00,
2013-09-10 04:56:00,67.3,65.2,30.15,ENE,71,0.0,0.0,93,0.00,CLR,,0.00,0.0,WeatherDisplay:10.37,2013-09-10 08:56:00,
2013-09-10 05:01:00,67.3,65.2,30.15,ENE,71,0.0,0.0,93,0.00,CLR,,0.00,0.0,WeatherDisplay:10.37,2013-09-10 09:01:00,
2013-09-10 05:06:00,67.4,65.3,30.16,ENE,71,0.0,0.0,93,0.00,CLR,,0.00,0.0,WeatherDisplay:10.37,2013-09-10 09:06:00,
2013-09-10 05:11:00,67.3,65.2,30.16,ENE,71,0.0,0.0,93,0.00,CLR,,0.00,0.0,WeatherDisplay:10.37,2013-09-10 09:11:00,
2013-09-10 05:16:00,67.3,65.2,30.16,ENE,71,0.0,0.0,93,0.00,CLR,,0.00,0.0,WeatherDisplay:10.37,2013-09-10 09:16:00,
2013-09-10 05:21:00,67.3,65.2,30.16,ENE,71,0.0,0.0,93,0.00,CLR,,0.00,0.0,WeatherDisplay:10.37,2013-09-10 09:21:00,
2013-09-10 05:26:00,67.3,64.9,30.16,ENE,71,0.0,0.0,92,0.00,CLR,,0.00,0.0,WeatherDisplay:10.37,2013-09-10 09:26:00,
2013-09-10 05:31:00,67.3,64.9,30.16,ENE,71,0.0,0.0,92,0.00,CLR,,0.00,0.0,WeatherDisplay:10.37,2013-09-10 09:31:00,
2013-09-10 05:36:00,67.2,64.8,30.16,ENE,71,0.0,0.0,92,0.00,CLR,,0.00,0.0,WeatherDisplay:10.37,2013-09-10 09:36:00,
2013-09-10 05:41:00,67.1,64.7,30.16,ENE,71,0.0,0.0,92,0.00,CLR,,0.00,0.0,WeatherDisplay:10.37,2013-09-10 09:41:00,
2013-09-10 05:46:00,67.0,64.6,30.16,ENE,71,0.0,0.0,92,0.00,CLR,,0.00,0.0,WeatherDisplay:10.37,2013-09-10 09:46:00,
2013-09-10 05:51:00,66.9,64.5,30.17,ENE,71,0.0,0.0,92,0.00,CLR,,0.00,0.0,WeatherDisplay:10.37,2013-09-10 09:51:00,
2013-09-10 05:56:00,66.3,63.9,30.17,ENE,71,0.0,0.0,92,0.00,CLR,,0.00,0.0,WeatherDisplay:10.37,2013-09-10 09:56:00,
2013-09-10 06:01:00,66.0,63.9,30.17,ENE,71,0.0,0.0,93,0.00,CLR,,0.00,0.0,WeatherDisplay:10.37,2013-09-10 10:01:00,
2013-09-10 06:06:00,65.9,64.1,30.17,ENE,71,0.0,0.0,94,0.00,CLR,,0.00,0.0,WeatherDisplay:10.37,2013-09-10 10:06:00,
2013-09-10 06:11:00,65.8,64.0,30.17,ENE,71,0.0,0.0,94,0.00,CLR,,0.00,0.0,WeatherDisplay:10.37,2013-09-10 10:11:00,
2013-09-10 06:16:00,65.7,63.9,30.17,ENE,71,0.0,0.0,94,0.00,CLR,,0.00,0.0,WeatherDisplay:10.37,2013-09-10 10:16:00,
2013-09-10 06:21:00,65.8,64.3,30.17,ENE,71,0.0,0.0,95,0.00,CLR,,0.00,0.0,WeatherDisplay:10.37,2013-09-10 10:21:00,
2013-09-10 06:26:00,65.8,64.3,30.17,ENE,71,0.0,0.0,95,0.00,CLR,,0.00,0.0,WeatherDisplay:10.37,2013-09-10 10:26:00,
2013-09-10 06:31:00,65.7,64.2,30.17,ENE,71,0.0,0.0,95,0.00,CLR,,0.00,0.0,WeatherDisplay:10.37,2013-09-10 10:31:00,
2013-09-10 06:36:00,65.8,64.3,30.17,ENE,71,0.0,0.0,95,0.00,CLR,,0.00,0.0,WeatherDisplay:10.37,2013-09-10 10:36:00,
2013-09-10 06:41:00,65.9,64.4,30.17,ENE,71,0.0,0.0,95,0.00,CLR,,0.00,0.0,WeatherDisplay:10.37,2013-09-10 10:41:00,
2013-09-10 06:46:00,65.8,64.0,30.18,ENE,71,0.0,0.0,94,0.00,CLR,,0.00,0.0,WeatherDisplay:10.37,2013-09-10 10:46:00,
2013-09-10 06:51:00,65.3,63.5,30.18,ENE,71,0.0,0.0,94,0.00,CLR,,0.00,0.0,WeatherDisplay:10.37,2013-09-10 10:51:00,
2013-09-10 06:56:00,65.2,63.7,30.18,ENE,71,0.0,0.0,95,0.00,CLR,,0.00,0.0,WeatherDisplay:10.37,2013-09-10 10:56:00,
2013-09-10 07:01:00,65.2,63.7,30.18,ENE,71,0.0,0.0,95,0.00,CLR,,0.00,0.0,WeatherDisplay:10.37,2013-09-10 11:01:00,
2013-09-10 07:06:00,65.2,63.7,30.18,ENE,71,0.0,0.0,95,0.00,CLR,,0.00,0.0,WeatherDisplay:10.37,2013-09-10 11:06:00,
2013-09-10 07:11:00,65.3,64.1,30.18,ENE,71,0.0,0.0,96,0.00,CLR,,0.00,0.0,WeatherDisplay:10.37,2013-09-10 11:11:00,
2013-09-10 07:16:00,65.2,63.7,30.18,ENE,71,0.0,0.0,95,0.00,CLR,,0.00,0.0,WeatherDisplay:10.37,2013-09-10 11:16:00,
2013-09-10 07:21:00,65.2,63.7,30.18,ENE,71,0.0,0.0,95,0.00,CLR,,0.00,5.0,WeatherDisplay:10.37,2013-09-10 11:21:00,
2013-09-10 07:26:00,65.2,64.0,30.18,ENE,71,0.0,0.0,96,0.00,CLR,,0.00,7.0,WeatherDisplay:10.37,2013-09-10 11:26:00,
2013-09-10 07:31:00,65.4,64.2,30.18,East,79,0.0,0.0,96,0.00,CLR,,0.00,11.0,WeatherDisplay:10.37,2013-09-10 11:31:00,
2013-09-10 07:36:00,65.6,64.4,30.18,East,79,0.0,0.0,96,0.00,CLR,,0.00,14.0,WeatherDisplay:10.37,2013-09-10 11:36:00,
2013-09-10 07:41:00,65.3,63.8,30.19,East,79,0.0,0.0,95,0.00,CLR,,0.00,18.0,WeatherDisplay:10.37,2013-09-10 11:41:00,
2013-09-10 07:46:00,65.2,63.7,30.19,East,79,0.0,0.0,95,0.00,CLR,,0.00,23.0,WeatherDisplay:10.37,2013-09-10 11:46:00,
2013-09-10 07:51:00,65.4,64.2,30.19,East,79,0.0,0.0,96,0.00,CLR,,0.00,26.0,WeatherDisplay:10.37,2013-09-10 11:51:00,
2013-09-10 07:56:00,65.6,64.4,30.19,ENE,78,0.0,0.0,96,0.00,CLR,,0.00,30.0,WeatherDisplay:10.37,2013-09-10 11:56:00,
2013-09-10 08:01:00,65.9,64.7,30.19,East,80,0.0,0.0,96,0.00,CLR,,0.00,33.0,WeatherDisplay:10.37,2013-09-10 12:01:00,
2013-09-10 08:06:00,66.0,64.8,30.19,East,81,0.0,0.0,96,0.00,CLR,,0.00,35.0,WeatherDisplay:10.37,2013-09-10 12:06:00,
2013-09-10 08:11:00,66.1,64.9,30.20,East,80,0.0,0.0,96,0.00,CLR,,0.00,39.0,WeatherDisplay:10.37,2013-09-10 12:11:00,
2013-09-10 08:16:00,66.3,65.1,30.20,East,80,0.0,0.0,96,0.00,CLR,,0.00,42.0,WeatherDisplay:10.37,2013-09-10 12:16:00,
2013-09-10 08:21:00,66.5,65.3,30.19,East,80,0.0,0.0,96,0.00,CLR,,0.00,44.0,WeatherDisplay:10.37,2013-09-10 12:21:00,
2013-09-10 08:26:00,66.6,65.4,30.20,East,80,0.0,0.0,96,0.00,CLR,,0.00,47.0,WeatherDisplay:10.37,2013-09-10 12:26:00,
2013-09-10 08:31:00,66.8,65.6,30.20,East,81,0.0,0.0,96,0.00,CLR,,0.00,49.0,WeatherDisplay:10.37,2013-09-10 12:31:00,
2013-09-10 08:36:00,67.1,65.9,30.20,East,81,0.0,0.0,96,0.00,CLR,,0.00,51.0,WeatherDisplay:10.37,2013-09-10 12:36:00,
2013-09-10 08:41:00,67.4,66.2,30.20,East,81,0.0,0.0,96,0.00,CLR,,0.00,53.0,WeatherDisplay:10.37,2013-09-10 12:41:00,
2013-09-10 08:46:00,67.7,66.5,30.20,East,81,0.0,0.0,96,0.00,CLR,,0.00,54.0,WeatherDisplay:10.37,2013-09-10 12:46:00,
2013-09-10 08:51:00,68.0,66.5,30.20,East,81,0.0,0.0,95,0.00,CLR,,0.00,56.0,WeatherDisplay:10.37,2013-09-10 12:51:00,
2013-09-10 08:56:00,68.3,66.8,30.20,East,81,0.0,0.0,95,0.00,CLR,,0.00,60.0,WeatherDisplay:10.37,2013-09-10 12:56:00,
2013-09-10 09:01:00,68.6,66.8,30.20,East,81,0.0,0.0,94,0.00,OVC,,0.00,132.0,WeatherDisplay:10.37,2013-09-10 13:01:00,
2013-09-10 09:06:00,68.9,67.4,30.20,East,81,0.0,0.0,95,0.00,OVC,,0.00,65.0,WeatherDisplay:10.37,2013-09-10 13:06:00,
2013-09-10 09:11:00,69.2,67.4,30.20,East,82,0.0,0.0,94,0.00,OVC,,0.00,69.0,WeatherDisplay:10.37,2013-09-10 13:11:00,
2013-09-10 09:16:00,69.5,67.4,30.21,East,89,0.0,0.0,93,0.00,OVC,,0.00,209.0,WeatherDisplay:10.37,2013-09-10 13:16:00,
2013-09-10 09:21:00,70.0,67.6,30.21,East,90,0.0,0.0,92,0.00,OVC,,0.00,262.0,WeatherDisplay:10.37,2013-09-10 13:21:00,
2013-09-10 09:26:00,70.5,68.1,30.21,East,90,0.0,0.0,92,0.00,OVC,,0.00,279.0,WeatherDisplay:10.37,2013-09-10 13:26:00,
2013-09-10 09:31:00,71.1,68.0,30.21,East,91,0.0,0.0,90,0.00,OVC,,0.00,299.0,WeatherDisplay:10.37,2013-09-10 13:31:00,
2013-09-10 09:36:00,71.7,68.3,30.21,East,98,0.0,0.0,89,0.00,OVC,,0.00,322.0,WeatherDisplay:10.37,2013-09-10 13:36:00,
2013-09-10 09:41:00,72.2,68.8,30.22,East,98,0.0,0.0,89,0.00,OVC,,0.00,339.0,WeatherDisplay:10.37,2013-09-10 13:41:00,
2013-09-10 09:46:00,72.7,68.6,30.22,East,96,0.0,0.0,87,0.00,OVC,,0.00,346.0,WeatherDisplay:10.37,2013-09-10 13:46:00,
2013-09-10 09:51:00,73.1,69.3,30.22,East,96,0.0,0.0,88,0.00,OVC,,0.00,371.0,WeatherDisplay:10.37,2013-09-10 13:51:00,
2013-09-10 09:56:00,73.5,69.4,30.22,East,96,0.0,0.0,87,0.00,OVC,,0.00,383.0,WeatherDisplay:10.37,2013-09-10 13:56:00,
2013-09-10 10:01:00,73.9,69.4,30.22,East,96,0.0,0.0,86,0.00,OVC,,0.00,397.0,WeatherDisplay:10.37,2013-09-10 14:01:00,
2013-09-10 10:06:00,74.2,69.1,30.22,East,96,0.0,0.0,84,0.00,OVC,,0.00,308.0,WeatherDisplay:10.37,2013-09-10 14:06:00,
2013-09-10 10:11:00,74.5,69.3,30.22,East,97,0.0,0.0,84,0.00,OVC,,0.00,403.0,WeatherDisplay:10.37,2013-09-10 14:11:00,
2013-09-10 10:16:00,74.9,69.7,30.23,East,96,0.0,0.0,84,0.00,OVC,,0.00,441.0,WeatherDisplay:10.37,2013-09-10 14:16:00,
2013-09-10 10:21:00,75.1,69.9,30.22,East,95,0.0,0.0,84,0.00,OVC,,0.00,462.0,WeatherDisplay:10.37,2013-09-10 14:21:00,
2013-09-10 10:26:00,75.2,69.7,30.22,East,93,0.0,0.0,83,0.00,OVC,,0.00,394.0,WeatherDisplay:10.37,2013-09-10 14:26:00,
2013-09-10 10:31:00,75.3,69.4,30.22,East,94,0.0,0.0,82,0.00,OVC,,0.00,483.0,WeatherDisplay:10.37,2013-09-10 14:31:00,
2013-09-10 10:36:00,75.5,69.6,30.23,East,94,0.0,0.0,82,0.00,OVC,,0.00,504.0,WeatherDisplay:10.37,2013-09-10 14:36:00,
2013-09-10 10:41:00,75.8,69.9,30.23,East,94,0.0,0.0,82,0.00,OVC,,0.00,490.0,WeatherDisplay:10.37,2013-09-10 14:41:00,
2013-09-10 10:46:00,76.1,70.9,30.23,East,93,0.0,0.0,84,0.00,OVC,,0.00,529.0,WeatherDisplay:10.37,2013-09-10 14:46:00,
2013-09-10 10:51:00,76.5,70.2,30.23,ESE,102,0.0,0.0,81,0.00,OVC,,0.00,545.0,WeatherDisplay:10.37,2013-09-10 14:51:00,
2013-09-10 10:56:00,76.7,71.5,30.23,ESE,107,0.0,0.0,84,0.00,OVC,,0.00,552.0,WeatherDisplay:10.37,2013-09-10 14:56:00,
2013-09-10 11:01:00,77.0,71.1,30.23,ESE,106,0.0,0.0,82,0.00,OVC,,0.00,571.0,WeatherDisplay:10.37,2013-09-10 15:01:00,
2013-09-10 11:06:00,77.3,71.4,30.23,ESE,106,0.0,0.0,82,0.00,OVC,,0.00,578.0,WeatherDisplay:10.37,2013-09-10 15:06:00,
2013-09-10 11:11:00,77.6,71.7,30.22,ESE,106,0.0,0.0,82,0.00,OVC,,0.00,596.0,WeatherDisplay:10.37,2013-09-10 15:11:00,
2013-09-10 11:16:00,77.9,72.0,30.22,ESE,106,0.0,0.0,82,0.00,OVC,,0.00,610.0,WeatherDisplay:10.37,2013-09-10 15:16:00,
2013-09-10 11:21:00,78.3,72.0,30.22,ENE,76,0.0,0.0,81,0.00,OVC,,0.00,585.0,WeatherDisplay:10.37,2013-09-10 15:21:00,
2013-09-10 11:26:00,78.4,71.3,30.22,ENE,69,0.0,0.0,79,0.00,OVC,,0.00,635.0,WeatherDisplay:10.37,2013-09-10 15:26:00,
2013-09-10 11:31:00,78.6,71.9,30.22,ENE,73,0.0,0.0,80,0.00,OVC,,0.00,589.0,WeatherDisplay:10.37,2013-09-10 15:31:00,
2013-09-10 11:36:00,78.7,72.7,30.22,ENE,73,0.0,0.0,82,0.00,OVC,,0.00,664.0,WeatherDisplay:10.37,2013-09-10 15:36:00,
2013-09-10 11:41:00,79.0,72.3,30.22,ENE,74,0.0,0.0,80,0.00,OVC,,0.00,696.0,WeatherDisplay:10.37,2013-09-10 15:41:00,
2013-09-10 11:46:00,79.4,71.9,30.21,East,81,0.0,0.0,78,0.00,OVC,,0.00,714.0,WeatherDisplay:10.37,2013-09-10 15:46:00,
2013-09-10 11:51:00,79.6,72.1,30.21,ESE,103,0.0,0.0,78,0.00,OVC,,0.00,738.0,WeatherDisplay:10.37,2013-09-10 15:51:00,
2013-09-10 11:56:00,80.0,72.1,30.22,ESE,104,0.0,0.0,77,0.00,OVC,,0.00,647.0,WeatherDisplay:10.37,2013-09-10 15:56:00,
2013-09-10 12:01:00,79.7,71.5,30.21,ESE,106,0.0,0.0,76,0.00,OVC,,0.00,232.0,WeatherDisplay:10.37,2013-09-10 16:01:00,
2013-09-10 12:06:00,79.6,71.4,30.21,ESE,107,0.0,0.0,76,0.00,OVC,,0.00,652.0,WeatherDisplay:10.37,2013-09-10 16:06:00,
2013-09-10 12:11:00,79.8,72.3,30.21,ESE,110,0.0,0.0,78,0.00,OVC,,0.00,833.0,WeatherDisplay:10.37,2013-09-10 16:11:00,
2013-09-10 12:16:00,80.3,72.4,30.21,ESE,106,0.0,0.0,77,0.00,CLR,,0.00,831.0,WeatherDisplay:10.37,2013-09-10 16:16:00,
2013-09-10 12:21:00,80.5,72.6,30.21,ESE,106,0.0,0.0,77,0.00,CLR,,0.00,858.0,WeatherDisplay:10.37,2013-09-10 16:21:00,
2013-09-10 12:26:00,80.8,71.7,30.20,ESE,106,0.0,0.0,74,0.00,CLR,,0.00,872.0,WeatherDisplay:10.37,2013-09-10 16:26:00,
2013-09-10 12:31:00,80.9,72.6,30.21,ESE,107,0.0,0.0,76,0.00,CLR,,0.00,860.0,WeatherDisplay:10.37,2013-09-10 16:31:00,
2013-09-10 12:36:00,81.3,72.2,30.20,ESE,107,0.0,0.0,74,0.00,CLR,,0.00,916.0,WeatherDisplay:10.37,2013-09-10 16:36:00,
2013-09-10 12:41:00,81.3,71.0,30.20,ESE,108,0.0,0.0,71,0.00,CLR,,0.00,163.0,WeatherDisplay:10.37,2013-09-10 16:41:00,
2013-09-10 12:46:00,80.9,70.6,30.21,ESE,109,0.0,0.0,71,0.00,CLR,,0.00,220.0,WeatherDisplay:10.37,2013-09-10 16:46:00,
2013-09-10 12:51:00,80.8,71.7,30.21,ESE,103,0.0,0.0,74,0.00,CLR,,0.00,886.0,WeatherDisplay:10.37,2013-09-10 16:51:00,
2013-09-10 12:56:00,81.1,70.8,30.21,ESE,122,0.0,0.0,71,0.00,CLR,,0.00,916.0,WeatherDisplay:10.37,2013-09-10 16:56:00,
2013-09-10 13:01:00,81.5,71.6,30.21,ESE,123,0.0,0.0,72,0.00,CLR,,0.00,891.0,WeatherDisplay:10.37,2013-09-10 17:01:00,
2013-09-10 13:06:00,81.8,70.2,30.21,ESE,122,0.0,0.0,68,0.00,CLR,,0.00,209.0,WeatherDisplay:10.37,2013-09-10 17:06:00,
2013-09-10 13:11:00,81.8,71.5,30.21,ESE,123,0.0,0.0,71,0.00,CLR,,0.00,193.0,WeatherDisplay:10.37,2013-09-10 17:11:00,
2013-09-10 13:16:00,81.5,72.0,30.21,ESE,123,0.0,0.0,73,0.00,CLR,,0.00,870.0,WeatherDisplay:10.37,2013-09-10 17:16:00,
2013-09-10 13:21:00,81.4,71.1,30.21,ESE,121,0.0,0.0,71,0.00,CLR,,0.00,745.0,WeatherDisplay:10.37,2013-09-10 17:21:00,
2013-09-10 13:26:00,81.4,70.7,30.21,SE,124,0.0,0.0,70,0.00,CLR,,0.00,229.0,WeatherDisplay:10.37,2013-09-10 17:26:00,
2013-09-10 13:31:00,81.5,70.3,30.20,ESE,123,0.0,0.0,69,0.00,CLR,,0.00,851.0,WeatherDisplay:10.37,2013-09-10 17:31:00,
2013-09-10 13:36:00,81.6,70.9,30.20,ESE,123,0.0,0.0,70,0.00,SCT,,0.00,109.0,WeatherDisplay:10.37,2013-09-10 17:36:00,
2013-09-10 13:41:00,81.6,70.9,30.20,ESE,123,0.0,0.0,70,0.00,SCT,,0.00,123.0,WeatherDisplay:10.37,2013-09-10 17:41:00,
2013-09-10 13:46:00,81.7,72.6,30.20,ESE,123,0.0,0.0,74,0.00,BKN,,0.00,230.0,WeatherDisplay:10.37,2013-09-10 17:46:00,
2013-09-10 13:51:00,81.9,71.2,30.20,ESE,123,0.0,0.0,70,0.00,SCT,,0.00,253.0,WeatherDisplay:10.37,2013-09-10 17:51:00,
2013-09-10 13:56:00,82.1,71.3,30.20,ESE,123,0.0,0.0,70,0.00,FEW,,0.00,216.0,WeatherDisplay:10.37,2013-09-10 17:56:00,
2013-09-10 14:01:00,82.0,70.8,30.19,ESE,122,0.0,0.0,69,0.00,BKN,,0.00,151.0,WeatherDisplay:10.37,2013-09-10 18:01:00,
2013-09-10 14:06:00,82.1,72.2,30.19,ESE,122,0.0,0.0,72,0.00,CLR,,0.00,798.0,WeatherDisplay:10.37,2013-09-10 18:06:00,
2013-09-10 14:11:00,82.6,71.8,30.19,SE,132,0.0,0.0,70,0.00,CLR,,0.00,856.0,WeatherDisplay:10.37,2013-09-10 18:11:00,
2013-09-10 14:16:00,83.3,73.3,30.19,SE,139,0.0,0.0,72,0.00,CLR,,0.00,847.0,WeatherDisplay:10.37,2013-09-10 18:16:00,
2013-09-10 14:21:00,83.8,72.1,30.19,SE,139,0.0,0.0,68,0.00,CLR,,0.00,877.0,WeatherDisplay:10.37,2013-09-10 18:21:00,
2013-09-10 14:26:00,84.1,71.1,30.19,SE,140,0.0,0.0,65,0.00,CLR,,0.00,879.0,WeatherDisplay:10.37,2013-09-10 18:26:00,
2013-09-10 14:31:00,84.3,72.1,30.19,SE,137,0.0,0.0,67,0.00,CLR,,0.00,896.0,WeatherDisplay:10.37,2013-09-10 18:31:00,
2013-09-10 14:36:00,84.6,72.9,30.19,SE,145,0.0,0.0,68,0.00,CLR,,0.00,870.0,WeatherDisplay:10.37,2013-09-10 18:36:00,
2013-09-10 14:41:00,84.7,71.6,30.19,SSE,156,0.0,0.0,65,0.00,BKN,,0.00,234.0,WeatherDisplay:10.37,2013-09-10 18:41:00,
2013-09-10 14:46:00,84.4,71.8,30.19,SSE,149,0.0,0.0,66,0.00,CLR,,0.00,902.0,WeatherDisplay:10.37,2013-09-10 18:46:00,
2013-09-10 14:51:00,84.3,71.2,30.18,SSE,153,0.0,0.0,65,0.00,CLR,,0.00,902.0,WeatherDisplay:10.37,2013-09-10 18:51:00,
2013-09-10 14:57:00,84.0,71.0,30.18,SSE,151,0.0,0.0,65,0.00,SCT,,0.00,905.0,WeatherDisplay:10.37,2013-09-10 18:57:00,
2013-09-10 15:02:00,83.8,71.2,30.18,South,172,0.0,0.0,66,0.00,SCT,,0.00,308.0,WeatherDisplay:10.37,2013-09-10 19:02:00,
2013-09-10 15:07:00,83.8,70.3,30.18,South,174,0.0,0.0,64,0.00,CLR,,0.00,267.0,WeatherDisplay:10.37,2013-09-10 19:07:00,
2013-09-10 15:12:00,83.8,71.7,30.18,South,171,0.0,0.0,67,0.00,CLR,,0.00,802.0,WeatherDisplay:10.37,2013-09-10 19:12:00,
2013-09-10 15:17:00,84.0,71.0,30.18,SSE,166,0.0,0.0,65,0.00,BKN,,0.00,292.0,WeatherDisplay:10.37,2013-09-10 19:17:00,
2013-09-10 15:22:00,84.1,72.4,30.18,SSW,192,0.0,0.0,68,0.00,CLR,,0.00,666.0,WeatherDisplay:10.37,2013-09-10 19:22:00,
2013-09-10 15:27:00,84.4,73.1,30.17,SSW,197,0.0,0.0,69,0.00,CLR,,0.00,821.0,WeatherDisplay:10.37,2013-09-10 19:27:00,
2013-09-10 15:32:00,84.7,72.1,30.17,SE,146,0.0,0.0,66,0.00,CLR,,0.00,814.0,WeatherDisplay:10.37,2013-09-10 19:32:00,
2013-09-10 15:37:00,84.3,72.1,30.17,SSW,208,0.0,0.0,67,0.00,CLR,,0.00,287.0,WeatherDisplay:10.37,2013-09-10 19:37:00,
2013-09-10 15:42:00,83.9,71.8,30.17,South,173,0.0,0.0,67,0.00,BKN,,0.00,127.0,WeatherDisplay:10.37,2013-09-10 19:42:00,
2013-09-10 15:47:00,83.4,71.7,30.17,South,170,0.0,0.0,68,0.00,BKN,,0.00,192.0,WeatherDisplay:10.37,2013-09-10 19:47:00,
2013-09-10 15:52:00,83.4,71.3,30.17,South,170,0.0,0.0,67,0.00,CLR,,0.00,749.0,WeatherDisplay:10.37,2013-09-10 19:52:00,
2013-09-10 15:57:00,83.6,70.6,30.16,South,171,0.0,0.0,65,0.00,CLR,,0.00,747.0,WeatherDisplay:10.37,2013-09-10 19:57:00,
2013-09-10 16:02:00,83.9,70.4,30.16,South,170,0.0,0.0,64,0.00,BKN,,0.00,334.0,WeatherDisplay:10.37,2013-09-10 20:02:00,
2013-09-10 16:07:00,83.8,71.7,30.16,ESE,108,0.0,0.0,67,0.00,BKN,,0.00,192.0,WeatherDisplay:10.37,2013-09-10 20:07:00,
2013-09-10 16:12:00,83.4,71.7,30.16,ESE,108,0.0,0.0,68,0.00,BKN,,0.00,167.0,WeatherDisplay:10.37,2013-09-10 20:12:00,
2013-09-10 16:17:00,83.2,72.0,30.16,ESE,108,0.0,0.0,69,0.00,CLR,,0.00,656.0,WeatherDisplay:10.37,2013-09-10 20:17:00,
2013-09-10 16:22:00,83.7,72.4,30.16,ESE,108,0.0,0.0,69,0.00,CLR,,0.00,671.0,WeatherDisplay:10.37,2013-09-10 20:22:00,
2013-09-10 16:27:00,84.1,71.1,30.15,SSE,165,0.0,0.0,65,0.00,BKN,,0.00,399.0,WeatherDisplay:10.37,2013-09-10 20:27:00,
2013-09-10 16:32:00,84.1,70.6,30.15,South,190,0.0,0.0,64,0.00,FEW,,0.00,659.0,WeatherDisplay:10.37,2013-09-10 20:32:00,
2013-09-10 16:37:00,84.4,71.8,30.15,South,188,0.0,0.0,66,0.00,FEW,,0.00,601.0,WeatherDisplay:10.37,2013-09-10 20:37:00,
2013-09-10 16:42:00,84.7,72.1,30.15,SSE,159,0.0,0.0,66,0.00,FEW,,0.00,589.0,WeatherDisplay:10.37,2013-09-10 20:42:00,
2013-09-10 16:47:00,84.9,70.9,30.15,SSE,153,0.0,0.0,63,0.00,SCT,,0.00,496.0,WeatherDisplay:10.37,2013-09-10 20:47:00,
2013-09-10 16:52:00,84.8,71.3,30.15,SE,145,0.0,0.0,64,0.00,SCT,,0.00,153.0,WeatherDisplay:10.37,2013-09-10 20:52:00,
2013-09-10 16:57:00,84.7,71.6,30.15,SE,144,0.0,0.0,65,0.00,BKN,,0.00,541.0,WeatherDisplay:10.37,2013-09-10 20:57:00,
2013-09-10 17:02:00,84.7,70.7,30.15,SSE,149,0.0,0.0,63,0.00,BKN,,0.00,128.0,WeatherDisplay:10.37,2013-09-10 21:02:00,
2013-09-10 17:07:00,84.6,71.5,30.15,SE,140,0.0,0.0,65,0.00,BKN,,0.00,323.0,WeatherDisplay:10.37,2013-09-10 21:07:00,
2013-09-10 17:12:00,84.5,71.0,30.15,SE,136,0.0,0.0,64,0.00,SCT,,0.00,471.0,WeatherDisplay:10.37,2013-09-10 21:12:00,
2013-09-10 17:17:00,84.5,71.4,30.15,SE,129,0.0,0.0,65,0.00,BKN,,0.00,452.0,WeatherDisplay:10.37,2013-09-10 21:17:00,
2013-09-10 17:22:00,84.5,70.5,30.15,SE,130,0.0,0.0,63,0.00,BKN,,0.00,403.0,WeatherDisplay:10.37,2013-09-10 21:22:00,
2013-09-10 17:27:00,84.2,70.7,30.15,SE,130,0.0,0.0,64,0.00,BKN,,0.00,142.0,WeatherDisplay:10.37,2013-09-10 21:27:00,
2013-09-10 17:32:00,83.8,70.8,30.15,SE,130,0.0,0.0,65,0.00,BKN,,0.00,69.0,WeatherDisplay:10.37,2013-09-10 21:32:00,
2013-09-10 17:37:00,83.4,71.3,30.15,SE,130,0.0,0.0,67,0.00,BKN,,0.00,364.0,WeatherDisplay:10.37,2013-09-10 21:37:00,
2013-09-10 17:42:00,83.1,70.6,30.15,SE,130,0.0,0.0,66,0.00,BKN,,0.00,285.0,WeatherDisplay:10.37,2013-09-10 21:42:00,
2013-09-10 17:47:00,83.0,71.3,30.15,SE,131,0.0,0.0,68,0.00,BKN,,0.00,190.0,WeatherDisplay:10.37,2013-09-10 21:47:00,
2013-09-10 17:52:00,83.2,71.1,30.14,SE,131,0.0,0.0,67,0.00,BKN,,0.00,63.0,WeatherDisplay:10.37,2013-09-10 21:52:00,
2013-09-10 17:57:00,83.3,71.2,30.15,SE,131,0.0,0.0,67,0.00,BKN,,0.00,304.0,WeatherDisplay:10.37,2013-09-10 21:57:00,
2013-09-10 18:02:00,83.2,71.5,30.15,SE,131,0.0,0.0,68,0.00,BKN,,0.00,279.0,WeatherDisplay:10.37,2013-09-10 22:02:00,
2013-09-10 18:07:00,83.4,72.2,30.15,SE,131,0.0,0.0,69,0.00,BKN,,0.00,267.0,WeatherDisplay:10.37,2013-09-10 22:07:00,
2013-09-10 18:12:00,83.4,71.7,30.15,SE,131,0.0,0.0,68,0.00,BKN,,0.00,243.0,WeatherDisplay:10.37,2013-09-10 22:12:00,
2013-09-10 18:17:00,83.3,71.6,30.15,SE,131,0.0,0.0,68,0.00,BKN,,0.00,169.0,WeatherDisplay:10.37,2013-09-10 22:17:00,
2013-09-10 18:22:00,83.2,71.5,30.15,SE,131,0.0,0.0,68,0.00,BKN,,0.00,148.0,WeatherDisplay:10.37,2013-09-10 22:22:00,
2013-09-10 18:27:00,83.1,71.4,30.16,SE,131,0.0,0.0,68,0.00,BKN,,0.00,130.0,WeatherDisplay:10.37,2013-09-10 22:27:00,
2013-09-10 18:32:00,83.1,71.9,30.16,SE,131,0.0,0.0,69,0.00,BKN,,0.00,200.0,WeatherDisplay:10.37,2013-09-10 22:32:00,
2013-09-10 18:37:00,83.3,71.6,30.15,SE,131,0.0,0.0,68,0.00,BKN,,0.00,185.0,WeatherDisplay:10.37,2013-09-10 22:37:00,
2013-09-10 18:42:00,83.4,71.3,30.16,SE,131,0.0,0.0,67,0.00,BKN,,0.00,121.0,WeatherDisplay:10.37,2013-09-10 22:42:00,
2013-09-10 18:47:00,83.2,72.0,30.15,SE,131,0.0,0.0,69,0.00,BKN,,0.00,153.0,WeatherDisplay:10.37,2013-09-10 22:47:00,
2013-09-10 18:52:00,82.8,71.2,30.16,SE,131,0.0,0.0,68,0.00,BKN,,0.00,137.0,WeatherDisplay:10.37,2013-09-10 22:52:00,
2013-09-10 18:57:00,82.5,71.7,30.16,SE,131,0.0,0.0,70,0.00,BKN,,0.00,125.0,WeatherDisplay:10.37,2013-09-10 22:57:00,
2013-09-10 19:02:00,82.3,71.5,30.16,SE,131,0.0,0.0,70,0.00,BKN,,0.00,109.0,WeatherDisplay:10.37,2013-09-10 23:02:00,
2013-09-10 19:07:00,82.0,71.7,30.16,SE,131,0.0,0.0,71,0.00,BKN,,0.00,95.0,WeatherDisplay:10.37,2013-09-10 23:07:00,
2013-09-10 19:12:00,81.6,71.3,30.16,SE,131,0.0,0.0,71,0.00,BKN,,0.00,81.0,WeatherDisplay:10.37,2013-09-10 23:12:00,
2013-09-10 19:17:00,81.2,71.3,30.16,SE,131,0.0,0.0,72,0.00,BKN,,0.00,67.0,WeatherDisplay:10.37,2013-09-10 23:17:00,
2013-09-10 19:23:00,80.8,71.3,30.16,SE,131,0.0,0.0,73,0.00,CLR,,0.00,51.0,WeatherDisplay:10.37,2013-09-10 23:23:00,
2013-09-10 19:28:00,80.4,71.3,30.16,SE,131,0.0,0.0,74,0.00,CLR,,0.00,33.0,WeatherDisplay:10.37,2013-09-10 23:28:00,
2013-09-10 19:33:00,79.8,70.8,30.16,SE,131,0.0,0.0,74,0.00,CLR,,0.00,16.0,WeatherDisplay:10.37,2013-09-10 23:33:00,
2013-09-10 19:38:00,79.1,70.9,30.17,SE,131,0.0,0.0,76,0.00,CLR,,0.00,12.0,WeatherDisplay:10.37,2013-09-10 23:38:00,
2013-09-10 19:43:00,78.4,70.6,30.16,SE,131,0.0,0.0,77,0.00,CLR,,0.00,5.0,WeatherDisplay:10.37,2013-09-10 23:43:00,
2013-09-10 19:48:00,77.7,70.7,30.16,SE,131,0.0,0.0,79,0.00,CLR,,0.00,0.0,WeatherDisplay:10.37,2013-09-10 23:48:00,
2013-09-10 19:53:00,77.1,71.2,30.17,SE,131,0.0,0.0,82,0.00,CLR,,0.00,0.0,WeatherDisplay:10.37,2013-09-10 23:53:00,
2013-09-10 19:58:00,76.5,70.9,30.17,SE,131,0.0,0.0,83,0.00,CLR,,0.00,0.0,WeatherDisplay:10.37,2013-09-10 23:58:00,
2013-09-10 20:03:00,75.8,70.6,30.17,SE,131,0.0,0.0,84,0.00,CLR,,0.00,0.0,WeatherDisplay:10.37,2013-09-11 00:03:00,
2013-09-10 20:08:00,75.3,70.5,30.17,SE,131,0.0,0.0,85,0.00,CLR,,0.00,0.0,WeatherDisplay:10.37,2013-09-11 00:08:00,
2013-09-10 20:13:00,74.8,70.3,30.17,SE,131,0.0,0.0,86,0.00,CLR,,0.00,0.0,WeatherDisplay:10.37,2013-09-11 00:13:00,
2013-09-10 20:18:00,74.4,70.3,30.17,SE,131,0.0,0.0,87,0.00,CLR,,0.00,0.0,WeatherDisplay:10.37,2013-09-11 00:18:00,
2013-09-10 20:23:00,74.0,69.9,30.17,SE,131,0.0,0.0,87,0.00,CLR,,0.00,0.0,WeatherDisplay:10.37,2013-09-11 00:23:00,
2013-09-10 20:28:00,73.7,69.9,30.17,SE,131,0.0,0.0,88,0.00,CLR,,0.00,0.0,WeatherDisplay:10.37,2013-09-11 00:28:00,
2013-09-10 20:32:00,73.4,70.0,30.17,SE,131,0.0,0.0,89,0.00,CLR,,0.00,0.0,WeatherDisplay:10.37,2013-09-11 00:32:00,
2013-09-10 20:38:00,73.1,69.7,30.18,SE,131,0.0,0.0,89,0.00,CLR,,0.00,0.0,WeatherDisplay:10.37,2013-09-11 00:38:00,
2013-09-10 20:43:00,72.7,69.6,30.18,SE,131,0.0,0.0,90,0.00,CLR,,0.00,0.0,WeatherDisplay:10.37,2013-09-11 00:43:00,
2013-09-10 20:48:00,72.4,69.3,30.18,SE,131,0.0,0.0,90,0.00,CLR,,0.00,0.0,WeatherDisplay:10.37,2013-09-11 00:48:00,
2013-09-10 20:53:00,72.2,69.1,30.18,SE,131,0.0,0.0,90,0.00,CLR,,0.00,0.0,WeatherDisplay:10.37,2013-09-11 00:53:00,
2013-09-10 20:58:00,72.1,69.3,30.19,SE,131,0.0,0.0,91,0.00,CLR,,0.00,0.0,WeatherDisplay:10.37,2013-09-11 00:58:00,
2013-09-10 21:03:00,71.9,69.1,30.19,SE,131,0.0,0.0,91,0.00,CLR,,0.00,0.0,WeatherDisplay:10.37,2013-09-11 01:03:00,
2013-09-10 21:08:00,71.7,68.9,30.19,SE,131,0.0,0.0,91,0.00,CLR,,0.00,0.0,WeatherDisplay:10.37,2013-09-11 01:08:00,
2013-09-10 21:13:00,71.5,68.7,30.19,SE,131,0.0,0.0,91,0.00,CLR,,0.00,0.0,WeatherDisplay:10.37,2013-09-11 01:13:00,
2013-09-10 21:18:00,71.4,69.0,30.19,SE,131,0.0,0.0,92,0.00,CLR,,0.00,0.0,WeatherDisplay:10.37,2013-09-11 01:18:00,
2013-09-10 21:23:00,71.2,68.8,30.19,SE,131,0.0,0.0,92,0.00,CLR,,0.00,0.0,WeatherDisplay:10.37,2013-09-11 01:23:00,
2013-09-10 21:28:00,71.2,68.8,30.19,SE,131,0.0,0.0,92,0.00,CLR,,0.00,0.0,WeatherDisplay:10.37,2013-09-11 01:28:00,
2013-09-10 21:33:00,71.2,68.8,30.20,SE,131,0.0,0.0,92,0.00,CLR,,0.00,0.0,WeatherDisplay:10.37,2013-09-11 01:33:00,
2013-09-10 21:38:00,71.3,68.9,30.19,SE,131,0.0,0.0,92,0.00,CLR,,0.00,0.0,WeatherDisplay:10.37,2013-09-11 01:38:00,
2013-09-10 21:43:00,71.4,69.0,30.20,SE,131,0.0,0.0,92,0.00,CLR,,0.00,0.0,WeatherDisplay:10.37,2013-09-11 01:43:00,
2013-09-10 21:48:00,71.5,69.1,30.20,SE,131,0.0,0.0,92,0.00,CLR,,0.00,0.0,WeatherDisplay:10.37,2013-09-11 01:48:00,
2013-09-10 21:53:00,71.5,69.1,30.20,SE,131,0.0,0.0,92,0.00,CLR,,0.00,0.0,WeatherDisplay:10.37,2013-09-11 01:53:00,
2013-09-10 21:58:00,71.5,68.7,30.20,SE,131,0.0,0.0,91,0.00,CLR,,0.00,0.0,WeatherDisplay:10.37,2013-09-11 01:58:00,
2013-09-10 22:03:00,71.4,68.6,30.20,SE,131,0.0,0.0,91,0.00,CLR,,0.00,0.0,WeatherDisplay:10.37,2013-09-11 02:03:00,
2013-09-10 22:08:00,71.4,68.6,30.20,SE,131,0.0,0.0,91,0.00,CLR,,0.00,0.0,WeatherDisplay:10.37,2013-09-11 02:08:00,
2013-09-10 22:13:00,71.3,68.5,30.20,SE,131,0.0,0.0,91,0.00,CLR,,0.00,0.0,WeatherDisplay:10.37,2013-09-11 02:13:00,
2013-09-10 22:18:00,71.3,68.5,30.21,SE,131,0.0,0.0,91,0.00,CLR,,0.00,0.0,WeatherDisplay:10.37,2013-09-11 02:18:00,
2013-09-10 22:23:00,71.3,68.5,30.21,SE,131,0.0,0.0,91,0.00,CLR,,0.00,0.0,WeatherDisplay:10.37,2013-09-11 02:23:00,
2013-09-10 22:28:00,71.3,68.5,30.21,SE,131,0.0,0.0,91,0.00,CLR,,0.00,0.0,WeatherDisplay:10.37,2013-09-11 02:28:00,
2013-09-10 22:33:00,71.2,68.4,30.21,SE,131,0.0,0.0,91,0.00,CLR,,0.00,0.0,WeatherDisplay:10.37,2013-09-11 02:33:00,
2013-09-10 22:38:00,71.2,68.4,30.21,SE,131,0.0,0.0,91,0.00,CLR,,0.00,0.0,WeatherDisplay:10.37,2013-09-11 02:38:00,
2013-09-10 22:43:00,71.2,68.1,30.21,SE,131,0.0,0.0,90,0.00,CLR,,0.00,0.0,WeatherDisplay:10.37,2013-09-11 02:43:00,
2013-09-10 22:48:00,71.0,68.2,30.21,SE,131,0.0,0.0,91,0.00,CLR,,0.00,0.0,WeatherDisplay:10.37,2013-09-11 02:48:00,
2013-09-10 22:53:00,70.8,68.0,30.21,SE,131,0.0,0.0,91,0.00,CLR,,0.00,0.0,WeatherDisplay:10.37,2013-09-11 02:53:00,
2013-09-10 22:59:00,70.8,68.0,30.21,SE,131,0.0,0.0,91,0.00,CLR,,0.00,0.0,WeatherDisplay:10.37,2013-09-11 02:59:00,
2013-09-10 23:04:00,70.7,67.9,30.21,SE,131,0.0,0.0,91,0.00,CLR,,0.00,0.0,WeatherDisplay:10.37,2013-09-11 03:04:00,
2013-09-10 23:09:00,70.7,67.9,30.21,SE,131,0.0,0.0,91,0.00,CLR,,0.00,0.0,WeatherDisplay:10.37,2013-09-11 03:09:00,
2013-09-10 23:14:00,70.7,67.9,30.21,SE,131,0.0,0.0,91,0.00,CLR,,0.00,0.0,WeatherDisplay:10.37,2013-09-11 03:14:00,
2013-09-10 23:19:00,70.7,67.9,30.21,SE,131,0.0,0.0,91,0.00,CLR,,0.00,0.0,WeatherDisplay:10.37,2013-09-11 03:19:00,
2013-09-10 23:24:00,70.6,67.8,30.21,SE,131,0.0,0.0,91,0.00,CLR,,0.00,0.0,WeatherDisplay:10.37,2013-09-11 03:24:00,
2013-09-10 23:29:00,70.6,67.8,30.21,SE,131,0.0,0.0,91,0.00,CLR,,0.00,0.0,WeatherDisplay:10.37,2013-09-11 03:29:00,
2013-09-10 23:34:00,70.5,67.7,30.21,SE,131,0.0,0.0,91,0.00,CLR,,0.00,0.0,WeatherDisplay:10.37,2013-09-11 03:34:00,
2013-09-10 23:39:00,70.4,67.6,30.21,SE,131,0.0,0.0,91,0.00,CLR,,0.00,0.0,WeatherDisplay:10.37,2013-09-11 03:39:00,
2013-09-10 23:44:00,70.2,67.4,30.21,SE,131,0.0,0.0,91,0.00,CLR,,0.00,0.0,WeatherDisplay:10.37,2013-09-11 03:44:00,
2013-09-10 23:49:00,69.9,66.8,30.22,SE,131,0.0,0.0,90,0.00,CLR,,0.00,0.0,WeatherDisplay:10.37,2013-09-11 03:49:00,
2013-09-10 23:54:00,69.4,66.7,30.22,SE,131,0.0,0.0,91,0.00,CLR,,0.00,0.0,WeatherDisplay:10.37,2013-09-11 03:54:00,
2013-09-10 23:59:00,69.0,66.3,30.21,SE,131,0.0,0.0,91,0.00,CLR,,0.00,0.0,WeatherDisplay:10.37,2013-09-11 03:59:00,